KC3MN Weather Reports


time (UTC)temp
C
wind
direction
speed
KPH
gust
KPH
rain 1hr
cm
rain 24hr
cm
rain mn
cm
humidity
%
barometer
mb
20260506103054 -17 0.0 0.0 0.00 0.03 0.00 1006.7
20260506101553 -17 0.0 0.0 0.00 0.03 0.00 1006.7
20260506100054 -17 0.0 0.0 0.00 0.03 0.00 1006.6
20260506094551 -17 0.0 0.0 0.00 0.03 0.00 1006.8
20260506093051 -17 0.0 0.0 0.00 0.03 0.00 1006.8
20260506091546 -17 0.0 0.0 0.00 0.03 0.00 1006.8
20260506090051 -17 0.0 0.0 0.00 0.03 0.00 1006.9
20260506084552 -17 0.0 0.0 0.00 0.03 0.00 1007.0
20260506083050 -17 0.0 0.0 0.00 0.03 0.00 1007.3
20260506081552 -17 0.0 0.0 0.00 0.03 0.00 1007.0
20260506073059 -17 0.0 0.0 0.00 0.03 0.00 1007.1
20260506071550 -17 0 0.0 0.0 0.00 0.03 0.00 1007.3
20260506070116 12 0 0.0 0.0 0.00 0.03 0.00 85 1007.4
20260506061545 12 0 0.0 0.0 0.00 0.03 0.00 85 1007.7
20260506044556 12 0 0.0 0.0 0.00 0.03 0.00 83 1008.1
20260506043046 13 0 0.0 0.0 0.00 0.03 0.00 83 1008.2
20260506041551 13 0 0.0 0.0 0.00 0.03 0.00 82 1008.3
20260506040058 13 0 0.0 0.0 0.00 0.03 0.00 81 1008.3
20260506034549 13 0 0.0 0.0 0.00 0.03 0.03 81 1008.5
20260506033046 14 0 0.0 0.0 0.00 0.03 0.03 80 1008.3
20260506031556 14 0 0.0 0.0 0.00 0.03 0.03 79 1008.3
20260506030110 15 0 0.0 0.0 0.00 0.03 0.03 78 1008.1
20260506024544 15 0 0.0 0.0 0.00 0.03 0.03 77 1008.2
20260506023047 16 0 0.0 0.0 0.00 0.03 0.03 76 1008.1
20260506021548 16 0 0.0 0.0 0.00 0.03 0.03 75 1008.2
20260506020052 17 0 0.0 0.0 0.00 0.03 0.03 72 1008.2
20260506014559 17 0 0.0 0.0 0.00 0.03 0.03 68 1008.1
20260506013053 17 0 0.0 0.0 0.00 0.03 0.03 67 1008.0
20260506011557 18 0 0.0 0.0 0.00 0.03 0.03 66 1007.7
20260506010054 18 0 0.0 0.0 0.00 0.03 0.03 63 1007.5
20260506004623 20 284 0.0 1.6 0.00 0.03 0.03 62 1007.3
20260506003056 20 0 0.0 0.0 0.00 0.03 0.03 59 1007.1
20260506001556 21 0 0.0 0.0 0.00 0.03 0.03 56 1007.0
20260506000054 22 0 0.0 0.0 0.00 0.03 0.03 52 1007.0
20260505234610 22 0 0.0 0.0 0.00 0.03 0.03 48 1006.8
20260505233050 23 0 0.0 0.0 0.00 0.03 0.03 43 1006.7
20260505231551 24 0 0.0 3.2 0.00 0.03 0.03 41 1006.5
20260505230054 24 0 0.0 11.3 0.00 0.03 0.03 39 1006.5
20260505224551 24 251 1.6 11.3 0.00 0.03 0.03 39 1006.5
20260505223058 24 213 0.0 4.8 0.00 0.03 0.03 40 1006.2
20260505221606 24 285 0.0 4.8 0.00 0.03 0.03 41 1006.2
20260505220133 24 237 0.0 11.3 0.00 0.03 0.03 41 1006.1
20260505214604 22 67 0.0 11.3 0.00 0.03 0.03 46 1006.2
20260505213046 21 0 0.0 3.2 0.03 0.03 0.03 61 1006.3
20260505211544 22 244 0.0 3.2 0.03 0.03 0.03 57 1006.0
20260505210044 22 263 0.0 8.0 0.03 0.03 0.03 55 1006.0
20260505204550 22 0 1.6 29.0 0.03 0.03 0.03 52 1006.1
20260505203052 26 89 3.2 19.3 0.00 0.00 0.00 33 1006.0
20260505201602 26 230 4.8 24.1 0.00 0.00 0.00 32 1005.7
20260505200059 27 224 8.0 24.1 0.00 0.00 0.00 31 1005.6
20260505194603 27 261 8.0 24.1 0.00 0.00 0.00 33 1005.6
20260505193050 28 223 9.7 20.9 0.00 0.00 0.00 31 1005.7
20260505191553 27 338 8.0 19.3 0.00 0.00 0.00 32 1005.9
20260505190054 27 284 3.2 29.0 0.00 0.00 0.00 31 1006.3
20260505184548 27 266 8.0 22.5 0.00 0.00 0.00 29 1006.7
20260505183052 27 190 4.8 20.9 0.00 0.00 0.00 31 1006.8
20260505181548 27 297 6.4 20.9 0.00 0.00 0.00 32 1007.0
20260505180052 27 25 6.4 16.1 0.00 0.00 0.00 33 1007.1
20260505174550 27 157 4.8 22.5 0.00 0.00 0.00 36 1007.2
20260505173053 26 174 4.8 19.3 0.00 0.00 0.00 36 1007.2
20260505171552 26 247 8.0 27.4 0.00 0.00 0.00 39 1007.2
20260505170052 26 147 9.7 25.7 0.00 0.00 0.00 37 1007.4
20260505164607 26 308 4.8 24.1 0.00 0.00 0.00 40 1007.5
20260505163051 26 5 6.4 27.4 0.00 0.00 0.00 38 1007.8
20260505161551 26 258 4.8 22.5 0.00 0.00 0.00 40 1007.9
20260505153053 25 238 8.0 24.1 0.00 0.00 0.00 41 1008.3
20260505151556 25 266 4.8 22.5 0.00 0.00 0.00 41 1008.2
20260505124558 19 299 0.0 6.4 0.00 0.00 0.00 59 1009.3
20260505123053 18 346 0.0 6.4 0.00 0.00 0.00 63 1009.3
20260505121550 16 15 0.0 3.2 0.00 0.00 0.00 74 1009.4
20260505120051 15 0 0.0 3.2 0.00 0.00 0.00 79 1009.4
20260505114547 12 0 0.0 3.2 0.00 0.00 0.00 89 1009.3
20260505113044 11 0 0.0 1.6 0.00 0.00 0.00 89 1009.4
20260505111553 11 0 0.0 1.6 0.00 0.00 0.00 89 1009.3